sat.trackr.live / text

‹ back to catalog

STARLINK-1392

NORAD 45677 · 2020-035W

PAYLOAD ACTIVE UNKNOWN

§ Identity

Operator
Country
US
Launch date
2020-06-04
Launch site
AFETR
Launch vehicle
Mass (kg)
RCS (m²)

Purposes: comms

External: N2YO · Heavens-Above · Gunter

§ Orbital elements

Epoch: 2026-05-25T04:56:25.801152Z

Period
93.70 min
Inclination
53.1529°
Eccentricity
0.0003352
Mean motion
15.36819248 rev/d
Perigee alt
453.2 km
Apogee alt
457.8 km
Semi-major
6,833.7 km
B*
1.2739e-3
RAAN
67.8967°
Arg perigee
101.0208°
Mean anomaly
259.1173°
Rev number
33,049

§ Raw data

STARLINK-13921 45677U 20035W   26145.20585418  .00046413  00000+0  12739-2 0  99912 45677  53.1529  67.8967 0003352 101.0208 259.1173 15.36819248330498

JSON: /api/v1/satellites/45677 · /tle

For live sub-satellite position, see the globe view (requires WebGL).

§ Visibility from observer

Set your observer location to see the next 7 days of passes ≥ 10°. The values pass through the URL so the page stays shareable.

No JS? Fill the form by hand. The geolocation button needs JavaScript.